SCP
-0 -0 -0 -0 -0 -0 0 0 0 0 0 0 0 0 0 0 0 -0 -0 0 0 0 0 -0 -0 -0 -0 0 0 0 0 0 0 0 0 0 0 0 0 0 0 0 0
-0 -0 -0 -0 -0 -0 0 0 0 0 0 0 0 0 0 0 0 0 0 0 0 0 0 0 0 0 -0 -0 -0 0 0 0 0 0 0 0 0 0 0 0 0 0 0
-0 -0 -0 -0 -0 0 0 0 0 0 0 0 0 0 0 0 0 0 0 0 0 0 0 0 0 0 0 0 -0 -0 -0 0 0 0 0 0 0 0 0 0 0 0 0
-0 -0 -0 -0 0 0 0 0 0 0 0 0 0 0 0 0 0 0 0 0 0 0 0 0 0 0 0 0 0 0 0 -0 -0 -0 0 0 0 0 0 0 0 0 0
-0 -0 -0 -0 -0 0 0 0 0 0 0 0 0 0 0 0 0 0 0 0 0 0 0 0 0 0 0 0 0 0 0 0 -0 -0 -0 0 0 0 0 0 0 0 0
-0 -0 -0 -0 -0 0 0 0 0 0 0 0 0 0 0 0 0 0 0 0 0 0 0 0 0 0 0 0 0 0 0 0 0 0 0 0 0 0 0 0 0 0 0
-0 0 0 -0 0 0 0 0 0 0 0 0 0 0 0 0 0 0 0 0 0 0 0 0 0 0 0 0 0 0 0 0 -0 -0 0 0 0 0 0 0 0 0 0
0 0 0 0 0 0 0 0 0 0 0 0 0 0 0 0 0 0 0 0 0 0 0 0 0 0 0 0 0 0 0 0 -0 0 0 0 0 0 0 0 0 0 0
0 0 0 0 -0 0 0 0 0 0 0 0 0 0 0 0 0 0 0 0 0 0 0 0 0 0 0 0 0 0 0 0 0 -0 0 0 0 0 0 0 0 1 1
0 0 0 0 0 0 0 1 1 1 1 0 0 0 0 0 0 0 0 0 0 0 0 0 0 0 0 0 0 0 0 0 0 0 0 0 0 0 0 0 0 0 1
0 0 0 0 0 0 0 0 1 1 1 1 1 1 0 0 0 0 0 0 0 1 1 1 0 0 0 0 0 0 0 0 0 0 0 1 1 0 0 0 0 0 0
0 0 0 0 0 0 0 0 1 0 0 0 0 0 0 0 0 0 0 0 1 1 1 1 1 1 1 0 1 0 0 0 0 0 0 1 0 0 0 0 0 0 0
0 0 0 1 1 0 0 0 1 1 1 1 1 1 1 0 0 0 0 0 0 1 0 1 1 1 1 0 0 1 0 0 0 0 0 1 0 0 0 0 0 0 0
0 0 0 1 1 1 0 1 0 1 1 1 1 1 1 1 1 1 0 0 1 1 1 1 1 1 0 0 1 1 0 0 0 0 0 1 0 0 0 0 0 0 0
0 0 0 0 2 2 2 0 1 1 1 1 1 2 2 1 1 1 1 0 1 0 1 1 1 2 1 1 1 0 0 0 0 0 0 1 0 0 0 0 0 0 0
0 0 0 0 3 3 2 2 2 3 1 2 2 3 3 2 2 1 1 1 1 1 1 1 1 1 1 1 1 1 1 1 1 1 0 1 1 0 0 0 0 0 0
0 0 0 1 2 5 5 3 2 1 2 1 3 6 6 4 2 2 1 1 1 1 2 2 2 2 2 1 0 1 3 2 1 0 0 1 1 0 0 0 0 0 0
0 0 1 0 1 4 5 4 3 1 1 2 2 3 5 5 3 3 1 2 1 1 1 1 1 2 2 1 1 2 3 1 1 0 0 0 1 0 0 0 0 0 0
0 1 1 1 0 4 5 2 3 3 2 1 2 2 5 4 3 2 2 2 2 1 1 1 1 2 1 1 2 2 2 1 1 0 1 1 0 0 0 0 0 0 0
1 1 2 1 3 4 2 4 1 1 1 2 2 2 5 4 2 3 2 2 2 1 1 1 2 1 1 1 2 1 1 1 1 1 1 1 0 0 0 0 0 0 0
0 1 1 1 3 2 1 1 1 1 1 3 2 4 4 4 3 3 1 2 2 1 1 3 1 1 1 1 2 1 1 1 1 0 1 1 0 0 0 0 0 0 0
0 1 1 2 2 4 1 4 2 3 1 2 2 3 3 2 2 1 2 2 2 1 2 2 2 1 1 2 1 1 0 0 1 1 0 1 0 0 0 0 0 1 0
0 1 1 1 3 4 4 3 5 5 4 2 2 2 2 1 1 2 1 1 2 1 1 2 1 2 3 2 1 1 0 1 1 1 0 0 0 0 0 0 0 0 0
0 0 0 1 4 5 6 2 5 2 2 2 3 2 1 1 2 2 1 2 2 1 1 1 1 2 2 1 2 1 0 0 0 0 0 0 0 0 0 1 0 0 0
0 0 0 2 4 4 4 3 3 2 1 1 1 3 2 3 2 1 1 1 2 1 3 2 2 1 1 1 0 1 0 0 0 0 0 0 0 0 0 0 0 0 0
0 0 0 1 2 2 2 2 2 2 2 2 2 2 2 2 1 1 1 1 2 2 2 2 1 1 1 1 0 1 0 0 0 0 0 0 0 0 0 0 0 0 0
Wind_Speed_500mb
30 35 33 33 29 29 30 32 34 35 34 33 31 28 24 20 17 17 15 11 8 5 3 4 5 8 9 11 13 16 18 19 19 19 15 10 7 6 5 4 8 7 10
40 39 37 36 32 30 33 34 35 35 34 32 31 30 28 23 19 15 13 12 10 8 7 4 1 3 6 7 10 12 16 17 17 18 18 17 14 12 10 7 11 15 12
44 40 41 38 34 32 33 34 35 35 34 32 31 29 27 24 21 18 15 11 10 8 6 6 5 4 3 4 6 8 10 13 13 12 12 9 13 19 16 12 14 13 14
41 39 40 42 40 36 34 35 36 36 36 34 31 28 27 24 20 18 17 14 11 8 7 5 4 5 3 3 3 7 8 8 8 6 4 3 13 25 22 18 16 14 15
36 37 37 43 43 41 37 37 37 37 37 35 32 29 28 25 22 20 18 16 13 10 8 5 3 2 1 4 5 6 8 9 6 4 5 9 13 23 24 24 20 20 17
37 35 34 41 44 42 39 38 39 39 36 35 35 32 29 27 24 22 20 17 15 14 12 9 5 3 2 4 8 9 10 8 4 9 12 16 16 28 27 30 29 26 23
37 36 34 38 42 43 40 39 40 39 37 37 37 35 34 31 29 27 25 20 18 17 14 11 10 7 6 6 9 12 14 12 7 12 15 15 18 31 28 28 33 31 28
38 36 36 38 43 44 41 39 39 39 40 38 38 38 37 36 33 32 29 25 22 19 17 17 14 11 10 9 11 12 14 16 13 14 16 17 31 33 24 24 31 33 31
35 35 36 37 43 45 42 41 41 41 41 41 41 41 41 40 38 37 33 29 26 23 22 20 17 13 12 12 11 13 14 15 16 17 21 21 34 34 28 21 25 32 31
33 33 35 33 38 45 47 49 47 46 44 45 45 45 45 45 43 42 39 35 32 29 27 23 18 16 15 14 14 14 15 16 14 17 18 32 37 40 37 24 23 28 32
33 30 31 31 32 36 45 50 54 51 51 52 52 53 52 52 52 51 48 42 40 35 31 27 21 21 21 19 15 19 19 11 14 18 15 32 37 41 43 30 25 29 30
36 31 29 33 32 31 35 38 42 48 59 62 62 64 63 61 58 55 55 52 47 42 39 33 29 29 29 22 27 21 19 9 18 18 21 34 41 42 41 35 28 30 30
43 37 36 39 38 36 33 38 40 38 42 53 65 69 70 66 60 53 47 55 57 52 49 42 37 38 31 20 21 18 16 21 16 15 27 35 36 30 31 36 32 30 32
23 29 32 35 40 29 37 37 38 38 41 44 47 55 66 64 62 57 50 48 55 54 56 41 34 33 24 27 27 24 24 22 18 18 28 35 32 25 22 30 32 33 33
28 22 23 32 41 28 27 33 38 41 43 41 42 52 56 57 62 58 58 53 48 42 44 43 38 36 30 32 29 27 27 26 24 23 22 33 34 28 21 20 28 35 37
38 34 30 33 36 38 34 32 32 37 40 46 45 51 62 56 58 58 63 55 50 44 44 40 41 36 36 32 31 34 34 30 27 27 25 34 37 33 27 25 26 30 41
42 37 36 39 40 48 41 38 39 38 45 45 46 53 62 68 59 64 56 54 54 52 49 47 46 39 37 31 30 32 36 40 36 32 31 35 34 29 27 27 29 28 40
50 45 40 40 37 41 44 40 42 43 42 45 44 48 59 70 64 60 55 52 52 52 49 50 43 41 35 33 31 36 45 38 35 29 32 35 36 36 31 28 25 27 36
47 45 42 40 40 41 41 47 49 51 55 50 47 45 52 63 58 59 54 52 55 51 52 46 46 41 36 30 33 43 34 32 28 32 36 36 36 35 36 23 27 28 34
46 49 51 47 46 52 52 57 59 46 53 48 46 47 52 54 53 55 50 53 54 52 49 49 47 39 33 32 32 29 27 26 34 37 40 41 41 39 40 36 32 33 37
48 54 53 54 55 57 59 62 48 45 45 43 42 49 49 50 52 56 47 46 51 52 51 55 47 41 33 29 29 26 32 41 37 34 35 39 39 36 39 40 33 29 32
61 60 61 62 55 52 50 57 44 41 40 40 38 46 47 46 45 43 47 43 50 45 53 53 47 35 34 38 23 25 28 25 30 25 26 35 40 35 42 44 36 35 34
61 58 59 56 53 51 55 45 46 43 38 39 38 41 43 43 44 51 48 42 47 44 43 51 41 39 32 25 25 23 18 10 7 16 20 31 32 36 45 35 27 31 30
72 65 59 58 57 49 52 50 45 36 38 40 42 37 39 45 49 50 47 49 45 39 38 40 38 43 31 25 24 24 30 24 10 8 12 20 26 30 32 32 37 37 33
68 62 60 57 53 50 50 46 44 44 37 32 32 46 42 48 45 45 44 43 39 38 39 37 37 30 25 25 27 20 16 19 22 24 19 18 21 20 21 32 30 34 33
57 59 55 55 57 61 55 53 55 46 40 36 41 45 44 44 39 38 41 38 35 38 37 33 29 29 29 24 23 23 21 21 24 23 20 13 17 18 20 21 23 30 37
Wind_Direction_500mb
160 173 176 184 176 166 160 150 145 143 143 145 147 145 147 155 160 157 154 157 153 147 157 207 232 249 253 256 264 269 270 268 265 263 269 278 274 251 226 183 153 191 195
159 173 183 189 183 174 168 161 155 154 152 151 150 150 152 160 162 162 158 162 165 157 153 137 93 298 275 269 265 265 268 270 269 262 259 259 275 259 245 210 198 210 216
158 173 185 191 191 184 176 169 166 164 164 164 164 160 161 165 167 167 168 173 165 143 129 101 88 62 15 317 286 271 275 278 275 272 262 261 271 271 239 238 222 219 220
164 177 186 193 195 193 185 179 178 175 177 178 176 172 175 175 176 178 174 176 170 163 150 126 92 63 29 0 328 307 297 286 295 296 38 297 241 273 242 232 234 242 222
169 180 192 200 198 198 194 188 187 187 188 186 185 187 186 186 188 192 191 184 182 185 178 171 133 70 330 340 329 314 312 316 321 77 320 264 243 260 261 231 228 233 233
170 175 186 205 205 203 201 200 196 197 196 197 196 198 199 197 201 204 202 197 196 199 194 194 194 206 291 316 300 295 296 298 338 37 285 278 266 249 251 236 229 232 226
172 185 188 204 211 209 208 208 206 205 203 207 207 205 208 210 208 212 211 205 206 209 206 206 211 220 240 269 275 279 280 277 253 261 276 267 262 260 258 239 229 230 236
177 183 204 207 214 215 214 216 218 217 215 214 216 217 216 218 217 219 218 215 214 214 215 216 219 224 232 252 268 275 275 269 253 264 249 269 261 272 268 241 231 228 234
183 184 209 214 217 220 223 224 226 229 226 225 224 225 226 226 224 224 223 221 220 222 222 223 225 232 243 265 279 290 287 278 261 244 259 272 260 273 275 254 232 227 229
186 191 197 224 219 224 228 231 231 234 235 234 233 233 232 232 231 230 228 225 227 227 227 228 232 240 250 268 281 288 291 288 282 250 250 258 260 268 275 257 234 225 222
191 192 197 206 229 228 228 237 234 236 238 239 238 237 236 235 235 231 231 229 230 229 230 231 239 245 251 258 280 298 296 292 271 267 260 256 262 264 269 252 235 229 225
201 207 214 205 204 218 209 227 250 245 243 242 240 240 236 235 235 233 234 230 230 229 232 233 241 250 254 248 278 283 300 248 253 259 251 255 262 268 260 247 236 229 226
214 221 217 233 226 210 215 214 241 253 253 250 245 241 243 236 231 231 226 232 227 227 230 233 238 244 244 238 237 265 259 258 271 260 255 261 279 273 251 241 235 229 226
215 221 235 222 240 228 212 221 222 226 245 250 256 249 240 240 232 221 221 226 231 226 228 231 228 240 251 235 244 248 257 259 256 266 264 276 289 278 254 239 237 231 226
253 246 234 218 234 241 239 222 235 227 231 238 235 255 252 230 225 226 223 216 229 215 232 216 225 232 231 235 245 252 258 260 259 257 264 272 283 282 251 249 244 236 228
244 244 239 231 242 254 258 262 245 250 231 238 231 233 254 244 227 220 223 222 219 223 220 227 223 225 231 239 247 246 245 254 258 258 262 266 274 271 258 259 256 245 229
251 253 248 237 232 246 248 249 257 260 259 238 239 234 235 250 223 226 223 219 218 222 221 224 221 226 224 236 241 254 250 250 245 248 254 263 269 273 261 267 260 251 224
253 249 250 238 241 250 242 248 261 264 249 244 239 234 236 237 237 224 219 223 219 217 223 221 224 223 227 233 243 239 243 256 257 249 260 249 258 255 263 267 261 241 219
246 243 235 237 236 237 248 256 267 262 257 243 239 231 232 229 231 212 220 220 220 217 218 222 222 220 228 233 241 248 255 245 252 258 255 252 240 246 254 255 257 235 219
239 240 244 242 246 254 254 260 264 255 257 245 233 230 223 227 218 222 214 215 220 214 218 218 220 224 222 238 249 250 262 245 267 260 254 257 244 231 231 241 257 228 221
248 247 244 251 260 255 253 255 250 251 242 236 230 225 216 216 217 221 210 222 210 213 213 221 217 210 223 233 236 247 254 261 257 260 258 255 251 233 230 227 234 214 222
255 252 253 255 257 257 253 248 239 243 239 234 227 220 212 209 214 213 198 212 214 211 214 215 209 214 223 228 229 255 268 262 248 249 242 252 250 227 225 219 220 212 188
255 252 250 252 258 251 248 243 242 229 220 220 214 212 207 205 203 202 202 198 220 199 211 207 209 204 215 224 224 237 264 248 266 257 257 249 239 229 219 223 205 212 187
252 251 251 250 252 243 244 224 221 222 219 215 207 212 206 199 203 202 200 191 209 193 206 204 201 213 202 222 241 248 243 258 266 270 265 249 232 230 221 210 199 212 191
253 250 245 239 239 230 230 220 219 219 221 215 201 202 198 195 204 201 194 185 196 186 201 203 201 207 224 227 240 240 244 244 244 253 272 254 221 207 210 210 200 205 189
248 243 237 230 230 237 232 241 213 217 201 200 196 201 188 188 187 183 175 185 188 182 198 193 196 215 219 228 229 235 232 238 236 240 244 230 198 200 212 214 206 200 190
Wind_Speed_850mb
30 35 33 33 29 29 30 32 34 35 34 33 31 28 24 20 17 17 15 11 8 5 3 4 5 8 9 11 13 16 18 19 19 19 15 10 7 6 5 4 8 7 10
40 39 37 36 32 30 33 34 35 35 34 32 31 30 28 23 19 15 13 12 10 8 7 4 1 3 6 7 10 12 16 17 17 18 18 17 14 12 10 7 11 15 12
44 40 41 38 34 32 33 34 35 35 34 32 31 29 27 24 21 18 15 11 10 8 6 6 5 4 3 4 6 8 10 13 13 12 12 9 13 19 16 12 14 13 14
41 39 40 42 40 36 34 35 36 36 36 34 31 28 27 24 20 18 17 14 11 8 7 5 4 5 3 3 3 7 8 8 8 6 4 3 13 25 22 18 16 14 15
36 37 37 43 43 41 37 37 37 37 37 35 32 29 28 25 22 20 18 16 13 10 8 5 3 2 1 4 5 6 8 9 6 4 5 9 13 23 24 24 20 20 17
37 35 34 41 44 42 39 38 39 39 36 35 35 32 29 27 24 22 20 17 15 14 12 9 5 3 2 4 8 9 10 8 4 9 12 16 16 28 27 30 29 26 23
37 36 34 38 42 43 40 39 40 39 37 37 37 35 34 31 29 27 25 20 18 17 14 11 10 7 6 6 9 12 14 12 7 12 15 15 18 31 28 28 33 31 28
38 36 36 38 43 44 41 39 39 39 40 38 38 38 37 36 33 32 29 25 22 19 17 17 14 11 10 9 11 12 14 16 13 14 16 17 31 33 24 24 31 33 31
35 35 36 37 43 45 42 41 41 41 41 41 41 41 41 40 38 37 33 29 26 23 22 20 17 13 12 12 11 13 14 15 16 17 21 21 34 34 28 21 25 32 31
33 33 35 33 38 45 47 49 47 46 44 45 45 45 45 45 43 42 39 35 32 29 27 23 18 16 15 14 14 14 15 16 14 17 18 32 37 40 37 24 23 28 32
33 30 31 31 32 36 45 50 54 51 51 52 52 53 52 52 52 51 48 42 40 35 31 27 21 21 21 19 15 19 19 11 14 18 15 32 37 41 43 30 25 29 30
36 31 29 33 32 31 35 38 42 48 59 62 62 64 63 61 58 55 55 52 47 42 39 33 29 29 29 22 27 21 19 9 18 18 21 34 41 42 41 35 28 30 30
43 37 36 39 38 36 33 38 40 38 42 53 65 69 70 66 60 53 47 55 57 52 49 42 37 38 31 20 21 18 16 21 16 15 27 35 36 30 31 36 32 30 32
23 29 32 35 40 29 37 37 38 38 41 44 47 55 66 64 62 57 50 48 55 54 56 41 34 33 24 27 27 24 24 22 18 18 28 35 32 25 22 30 32 33 33
28 22 23 32 41 28 27 33 38 41 43 41 42 52 56 57 62 58 58 53 48 42 44 43 38 36 30 32 29 27 27 26 24 23 22 33 34 28 21 20 28 35 37
38 34 30 33 36 38 34 32 32 37 40 46 45 51 62 56 58 58 63 55 50 44 44 40 41 36 36 32 31 34 34 30 27 27 25 34 37 33 27 25 26 30 41
42 37 36 39 40 48 41 38 39 38 45 45 46 53 62 68 59 64 56 54 54 52 49 47 46 39 37 31 30 32 36 40 36 32 31 35 34 29 27 27 29 28 40
50 45 40 40 37 41 44 40 42 43 42 45 44 48 59 70 64 60 55 52 52 52 49 50 43 41 35 33 31 36 45 38 35 29 32 35 36 36 31 28 25 27 36
47 45 42 40 40 41 41 47 49 51 55 50 47 45 52 63 58 59 54 52 55 51 52 46 46 41 36 30 33 43 34 32 28 32 36 36 36 35 36 23 27 28 34
46 49 51 47 46 52 52 57 59 46 53 48 46 47 52 54 53 55 50 53 54 52 49 49 47 39 33 32 32 29 27 26 34 37 40 41 41 39 40 36 32 33 37
48 54 53 54 55 57 59 62 48 45 45 43 42 49 49 50 52 56 47 46 51 52 51 55 47 41 33 29 29 26 32 41 37 34 35 39 39 36 39 40 33 29 32
61 60 61 62 55 52 50 57 44 41 40 40 38 46 47 46 45 43 47 43 50 45 53 53 47 35 34 38 23 25 28 25 30 25 26 35 40 35 42 44 36 35 34
61 58 59 56 53 51 55 45 46 43 38 39 38 41 43 43 44 51 48 42 47 44 43 51 41 39 32 25 25 23 18 10 7 16 20 31 32 36 45 35 27 31 30
72 65 59 58 57 49 52 50 45 36 38 40 42 37 39 45 49 50 47 49 45 39 38 40 38 43 31 25 24 24 30 24 10 8 12 20 26 30 32 32 37 37 33
68 62 60 57 53 50 50 46 44 44 37 32 32 46 42 48 45 45 44 43 39 38 39 37 37 30 25 25 27 20 16 19 22 24 19 18 21 20 21 32 30 34 33
57 59 55 55 57 61 55 53 55 46 40 36 41 45 44 44 39 38 41 38 35 38 37 33 29 29 29 24 23 23 21 21 24 23 20 13 17 18 20 21 23 30 37
Wind_Direction_850mb
160 173 176 184 176 166 160 150 145 143 143 145 147 145 147 155 160 157 154 157 153 147 157 207 232 249 253 256 264 269 270 268 265 263 269 278 274 251 226 183 153 191 195
159 173 183 189 183 174 168 161 155 154 152 151 150 150 152 160 162 162 158 162 165 157 153 137 93 298 275 269 265 265 268 270 269 262 259 259 275 259 245 210 198 210 216
158 173 185 191 191 184 176 169 166 164 164 164 164 160 161 165 167 167 168 173 165 143 129 101 88 62 15 317 286 271 275 278 275 272 262 261 271 271 239 238 222 219 220
164 177 186 193 195 193 185 179 178 175 177 178 176 172 175 175 176 178 174 176 170 163 150 126 92 63 29 0 328 307 297 286 295 296 38 297 241 273 242 232 234 242 222
169 180 192 200 198 198 194 188 187 187 188 186 185 187 186 186 188 192 191 184 182 185 178 171 133 70 330 340 329 314 312 316 321 77 320 264 243 260 261 231 228 233 233
170 175 186 205 205 203 201 200 196 197 196 197 196 198 199 197 201 204 202 197 196 199 194 194 194 206 291 316 300 295 296 298 338 37 285 278 266 249 251 236 229 232 226
172 185 188 204 211 209 208 208 206 205 203 207 207 205 208 210 208 212 211 205 206 209 206 206 211 220 240 269 275 279 280 277 253 261 276 267 262 260 258 239 229 230 236
177 183 204 207 214 215 214 216 218 217 215 214 216 217 216 218 217 219 218 215 214 214 215 216 219 224 232 252 268 275 275 269 253 264 249 269 261 272 268 241 231 228 234
183 184 209 214 217 220 223 224 226 229 226 225 224 225 226 226 224 224 223 221 220 222 222 223 225 232 243 265 279 290 287 278 261 244 259 272 260 273 275 254 232 227 229
186 191 197 224 219 224 228 231 231 234 235 234 233 233 232 232 231 230 228 225 227 227 227 228 232 240 250 268 281 288 291 288 282 250 250 258 260 268 275 257 234 225 222
191 192 197 206 229 228 228 237 234 236 238 239 238 237 236 235 235 231 231 229 230 229 230 231 239 245 251 258 280 298 296 292 271 267 260 256 262 264 269 252 235 229 225
201 207 214 205 204 218 209 227 250 245 243 242 240 240 236 235 235 233 234 230 230 229 232 233 241 250 254 248 278 283 300 248 253 259 251 255 262 268 260 247 236 229 226
214 221 217 233 226 210 215 214 241 253 253 250 245 241 243 236 231 231 226 232 227 227 230 233 238 244 244 238 237 265 259 258 271 260 255 261 279 273 251 241 235 229 226
215 221 235 222 240 228 212 221 222 226 245 250 256 249 240 240 232 221 221 226 231 226 228 231 228 240 251 235 244 248 257 259 256 266 264 276 289 278 254 239 237 231 226
253 246 234 218 234 241 239 222 235 227 231 238 235 255 252 230 225 226 223 216 229 215 232 216 225 232 231 235 245 252 258 260 259 257 264 272 283 282 251 249 244 236 228
244 244 239 231 242 254 258 262 245 250 231 238 231 233 254 244 227 220 223 222 219 223 220 227 223 225 231 239 247 246 245 254 258 258 262 266 274 271 258 259 256 245 229
251 253 248 237 232 246 248 249 257 260 259 238 239 234 235 250 223 226 223 219 218 222 221 224 221 226 224 236 241 254 250 250 245 248 254 263 269 273 261 267 260 251 224
253 249 250 238 241 250 242 248 261 264 249 244 239 234 236 237 237 224 219 223 219 217 223 221 224 223 227 233 243 239 243 256 257 249 260 249 258 255 263 267 261 241 219
246 243 235 237 236 237 248 256 267 262 257 243 239 231 232 229 231 212 220 220 220 217 218 222 222 220 228 233 241 248 255 245 252 258 255 252 240 246 254 255 257 235 219
239 240 244 242 246 254 254 260 264 255 257 245 233 230 223 227 218 222 214 215 220 214 218 218 220 224 222 238 249 250 262 245 267 260 254 257 244 231 231 241 257 228 221
248 247 244 251 260 255 253 255 250 251 242 236 230 225 216 216 217 221 210 222 210 213 213 221 217 210 223 233 236 247 254 261 257 260 258 255 251 233 230 227 234 214 222
255 252 253 255 257 257 253 248 239 243 239 234 227 220 212 209 214 213 198 212 214 211 214 215 209 214 223 228 229 255 268 262 248 249 242 252 250 227 225 219 220 212 188
255 252 250 252 258 251 248 243 242 229 220 220 214 212 207 205 203 202 202 198 220 199 211 207 209 204 215 224 224 237 264 248 266 257 257 249 239 229 219 223 205 212 187
252 251 251 250 252 243 244 224 221 222 219 215 207 212 206 199 203 202 200 191 209 193 206 204 201 213 202 222 241 248 243 258 266 270 265 249 232 230 221 210 199 212 191
253 250 245 239 239 230 230 220 219 219 221 215 201 202 198 195 204 201 194 185 196 186 201 203 201 207 224 227 240 240 244 244 244 253 272 254 221 207 210 210 200 205 189
248 243 237 230 230 237 232 241 213 217 201 200 196 201 188 188 187 183 175 185 188 182 198 193 196 215 219 228 229 235 232 238 236 240 244 230 198 200 212 214 206 200 190